Погода в Козьмодемьянске

Россия / Республика Марий Эл     56°20′39″N   46°34′05″E
темп.,
°C
ветер,
м/с
пор.,
м/с
влажн.,
%
обл.,
%
осадки,
мм/ч
давл.,
гПа
погр.,
м
10 мая, пн
пн1000:00+12юз3494100 0.1 101282
03:00+12ююз1194100 0.6 101520
06:00+13вюв1290100 0.9 101662
09:00+15св1284100 0.9 1018161
12:00+14сз4488100 0.1 1021368
15:00+17с5577100 0.1 1022567
18:00+14с5685100 0.0 1022386
21:00+10с5997100 0.0 1024296
11 мая, вт
вт1100:00+9ссв4895100 0.0 1025303
03:00+8ссв51096100 0.0 1025290
06:00+10св589294 0.0 1026300
09:00+15св567629 0.0 1027558
12:00+20всв456184 0.0 1027887
15:00+22всв445483 0.0 10271232
18:00+20св3671100 0.1 1027148
21:00+15св379069 0.3 1028110
12 мая, ср
ср1200:00+13всв379475 0.7 1028130
03:00+12всв379593 0.8 1028119
06:00+14всв389097 0.0 1028210
09:00+20в5768100 0.0 1028703
12:00+23вюв585197 0.0 10271758
15:00+24юв474772 0.0 10262210
18:00+20ююз246861 0.0 1026112
21:00+16вюв22709 0.0 102711
13 мая, чт
чт1300:00+15вюв117298 0.0 102711
03:00+14в117764 0.0 102611
06:00+16в2578100 0.0 1026131
09:00+20юв695584 0.0 1025748
12:00+22юв7949100 0.0 10251265
15:00+19ююв3765100 0.0 1024432
18:00+17юв51372100 0.1 1023431
21:00+16юв41377100 0.1 1022352
14 мая, пт
пт1400:00+16юв6157185 0.0 1021349
03:00+13юв398679 0.9 1021174
06:00+15ююв4107894 0.0 1021276
09:00+19ю576092 0.0 1020579
12:00+22ю4657100 0.0 1020911
15:00+22ююз456154 0.0 10201070
18:00+21юз357282 0.0 1020217
21:00+17ю22867 0.0 101912